Location: Bijele Vode
(45.2833°N, 16.2000°E)
Time: 10:29:05
(UTC+00:00)

CZ-2C R/B - Pass Details

Date: 26 January 2021
Orbit: 390 x 584 km, 35.0° (Epoch: 27 February)

Event Time Altitude Azimuth Distance (km) Brightness Sun altitude
Exits shadow 05:45:00 - 250° (WSW) 2,539 4.2 -6.9°
Reaches altitude 10° 05:47:53 10° 225° (SW) 1,801 3.7 -6.4°
Maximum altitude 05:49:38 12° 200° (SSW) 1,625 3.7 -6.1°
Drops below altitude 10° 05:51:22 10° 174° (S) 1,751 4.3 -5.8°
Sets 05:54:40 0° 144° (SE) 2,583 5.8 -5.3°
